SWA553 KDTW-KDAL

Flight info

Callsign SWA553
Flight time N/A
Altitude 34000
Route BARII3 SINKR LITTR DIRRK HIBIL3
Aircraft B38M/M-SDE1FGHILORVWXY/HB1

Departure

Time 2026-05-04 23:21
Airport Detroit Metropolitan Wayne County Airport (KDTW)

Arrival

Time N/A
Airport Dallas Love Field (KDAL)
Time Latitude Longitude Altitude Speed Heading
2026-05-04 22:05 42.20938 -83.35658 677 ft 0 kts 298°
2026-05-04 22:52 42.20935 -83.35651 649 ft 3 kts 298°
2026-05-04 22:52 42.20926 -83.35629 649 ft 3 kts 298°
2026-05-04 22:53 42.20921 -83.35617 649 ft 0 kts 298°
2026-05-04 23:07 42.20922 -83.35617 658 ft 0 kts 299°
2026-05-04 23:07 42.20922 -83.35618 658 ft 0 kts 305°
2026-05-04 23:07 42.20923 -83.35619 649 ft 0 kts 312°
2026-05-04 23:07 42.20924 -83.35619 649 ft 0 kts 335°
2026-05-04 23:08 42.20935 -83.35615 649 ft 5 kts 15°
2026-05-04 23:08 42.20981 -83.35562 650 ft 11 kts 43°
2026-05-04 23:08 42.21060 -83.35495 649 ft 16 kts 27°
2026-05-04 23:08 42.21164 -83.35420 649 ft 9 kts 29°
2026-05-04 23:09 42.21231 -83.35368 649 ft 7 kts 31°
2026-05-04 23:09 42.21307 -83.35317 649 ft 16 kts 24°
2026-05-04 23:09 42.21390 -83.35263 649 ft 11 kts 26°
2026-05-04 23:09 42.21451 -83.35225 648 ft 10 kts 19°
2026-05-04 23:10 42.21518 -83.35216 648 ft 10 kts
2026-05-04 23:10 42.21554 -83.35182 648 ft 5 kts 69°
2026-05-04 23:10 42.21558 -83.35106 648 ft 12 kts 75°
2026-05-04 23:10 42.21618 -83.35008 648 ft 16 kts 45°
2026-05-04 23:11 42.21713 -83.34885 649 ft 20 kts 41°
2026-05-04 23:11 42.21768 -83.34820 649 ft 7 kts 43°
2026-05-04 23:11 42.21779 -83.34806 649 ft 4 kts 44°
2026-05-04 23:11 42.21796 -83.34783 649 ft 3 kts 44°
2026-05-04 23:12 42.21797 -83.34782 649 ft 0 kts 44°
2026-05-04 23:12 42.21798 -83.34781 649 ft 0 kts 44°
2026-05-04 23:14 42.21799 -83.34780 651 ft 0 kts 44°
2026-05-04 23:15 42.21807 -83.34769 652 ft 1 kts 44°
2026-05-04 23:15 42.21810 -83.34765 646 ft 0 kts 44°
2026-05-04 23:16 42.21829 -83.34716 649 ft 11 kts 74°
2026-05-04 23:16 42.21838 -83.34589 649 ft 7 kts 86°
2026-05-04 23:16 42.21877 -83.34494 650 ft 17 kts 32°
2026-05-04 23:16 42.22014 -83.34386 648 ft 28 kts 28°
2026-05-04 23:17 42.22196 -83.34253 649 ft 28 kts 28°
2026-05-04 23:17 42.22354 -83.34137 649 ft 27 kts 29°
2026-05-04 23:17 42.22456 -83.34061 649 ft 26 kts 29°
2026-05-04 23:17 42.22642 -83.33926 649 ft 22 kts 28°
2026-05-04 23:18 42.22670 -83.33905 649 ft 9 kts 28°
2026-05-04 23:18 42.22703 -83.33882 648 ft 8 kts 28°
2026-05-04 23:18 42.22754 -83.33823 648 ft 0 kts 68°
2026-05-04 23:18 42.22755 -83.33814 648 ft 0 kts 88°
2026-05-04 23:19 42.22755 -83.33813 648 ft 0 kts 89°
2026-05-04 23:19 42.22755 -83.33810 648 ft 3 kts 89°
2026-05-04 23:20 42.22741 -83.33753 651 ft 9 kts 130°
2026-05-04 23:20 42.22705 -83.33715 649 ft 0 kts 134°
2026-05-04 23:20 42.22703 -83.33713 649 ft 1 kts 145°
2026-05-04 23:20 42.22691 -83.33719 650 ft 8 kts 200°
2026-05-04 23:21 42.22443 -83.33896 650 ft 77 kts 209°
2026-05-04 23:21 42.21838 -83.34336 648 ft 137 kts 209°
2026-05-04 23:21 42.21134 -83.34896 735 ft 170 kts 210°
2026-05-04 23:21 42.19972 -83.35644 1268 ft 192 kts 204°
2026-05-04 23:22 42.18676 -83.36115 2274 ft 191 kts 196°
2026-05-04 23:22 42.17362 -83.36412 3317 ft 191 kts 198°
2026-05-04 23:22 42.16118 -83.36992 4115 ft 195 kts 207°
2026-05-04 23:22 42.14838 -83.37647 4942 ft 197 kts 206°
2026-05-04 23:23 42.13535 -83.38256 5765 ft 201 kts 204°
2026-05-04 23:23 42.12167 -83.38852 6445 ft 209 kts 202°
2026-05-04 23:23 42.10762 -83.39431 7204 ft 211 kts 202°
2026-05-04 23:23 42.09330 -83.40005 7884 ft 218 kts 202°
2026-05-04 23:24 42.07861 -83.40583 8621 ft 221 kts 202°
2026-05-04 23:24 42.06364 -83.41111 9345 ft 227 kts 201°
2026-05-04 23:24 42.04815 -83.41633 9939 ft 232 kts 201°
2026-05-04 23:24 42.03249 -83.42155 10662 ft 232 kts 201°
2026-05-04 23:25 42.01631 -83.42693 11277 ft 238 kts 200°
2026-05-04 23:25 42.00017 -83.43228 11907 ft 243 kts 200°
2026-05-04 23:25 41.98316 -83.43794 12233 ft 261 kts 200°
2026-05-04 23:25 41.96504 -83.44394 12536 ft 280 kts 199°
2026-05-04 23:26 41.94621 -83.45262 12863 ft 292 kts 209°
2026-05-04 23:26 41.92699 -83.46395 13292 ft 306 kts 208°
2026-05-04 23:26 41.90709 -83.47544 13783 ft 315 kts 208°
2026-05-04 23:26 41.88687 -83.48699 14465 ft 316 kts 208°
2026-05-04 23:27 41.86622 -83.49875 15089 ft 321 kts 208°
2026-05-04 23:27 41.84584 -83.51033 15693 ft 324 kts 208°
2026-05-04 23:27 41.82488 -83.52222 16326 ft 328 kts 208°
2026-05-04 23:27 41.80384 -83.53415 16921 ft 331 kts 208°
2026-05-04 23:28 41.78243 -83.54626 17516 ft 334 kts 208°
2026-05-04 23:28 41.76091 -83.55844 18065 ft 338 kts 208°
2026-05-04 23:28 41.73913 -83.57076 18564 ft 341 kts 208°
2026-05-04 23:28 41.71697 -83.58329 19096 ft 343 kts 208°
2026-05-04 23:29 41.69560 -83.59636 19580 ft 344 kts 211°